Location: Wildlife_Club
(35.6000°N, 81.4330°W)
Time: 18:34:06
(UTC-04:00)

Iridium 56 - Visible Passes

Search period start: 26 June 2016 00:00
Search period end: 06 July 2016 00:00
Orbit: 776 x 779 km, 86.4° (Epoch: 26 June)

Date Brightness Start Highest point End Pass type
(mag) Time Alt. Az. Time Alt. Az. Time Alt. Az.
26 Jun 5.7 03:56:13 10° N 04:01:26 69° E 04:04:25 26° SSE visible
26 Jun 7.5 05:40:05 10° WNW 05:41:26 11° WNW 05:42:46 10° W visible
27 Jun 6.8 03:23:02 10° NNE 03:27:50 36° E 03:30:35 21° SE visible
27 Jun 6.9 05:04:21 10° NNW 05:08:15 22° W 05:11:02 14° WSW visible
28 Jun 7.7 02:50:26 10° NNE 02:54:06 19° ENE 02:56:47 13° ESE visible
28 Jun 6.0 04:30:05 10° NNW 04:34:57 41° W 04:37:13 27° SW visible
29 Jun 5.4 03:56:19 10° N 04:01:32 80° W 04:03:26 40° S visible
30 Jun 6.1 03:22:54 10° N 03:28:01 53° E 03:29:40 38° SE visible
30 Jun 7.3 05:05:24 10° NW 05:08:10 15° W 05:10:07 12° WSW visible
01 Jul 7.1 02:49:55 10° NNE 02:54:21 28° E 02:55:56 24° ESE visible
01 Jul 6.6 04:30:34 10° NNW 04:34:57 28° W 04:36:22 24° WSW visible
02 Jul 7.8 02:17:43 10° NE 02:20:34 15° ENE 02:22:12 13° E visible
02 Jul 5.7 03:56:32 10° NNW 04:01:36 53° W 04:02:38 45° SW visible
03 Jul 5.5 03:22:54 10° N 03:28:08 80° E 03:28:55 64° SSE visible
04 Jul 6.4 02:49:38 10° NNE 02:54:34 41° E 02:55:13 39° ESE visible
04 Jul 7.0 04:31:19 10° NW 04:34:54 19° W 04:35:40 18° W visible
05 Jul 7.3 02:16:52 10° NNE 02:20:52 22° E 02:21:31 21° E visible
05 Jul 6.2 03:56:54 10° NNW 04:01:37 36° W 04:01:59 35° W visible
